Погода в Верхнем Баскунчаке

Россия / Астраханская область     48°13′32″N   46°43′18″E
темп.,
°C
ветер,
м/с
пор.,
м/с
влажн.,
%
обл.,
%
осадки,
мм/ч
давл.,
гПа
погр.,
м
17 сентября, пт
пт1701:00+12с35430 0.0 101795
04:00+10ссз35513 0.0 101878
07:00+9с34630 0.0 101991
10:00+14ссв33480 0.0 1019791
13:00+16ссв23380 0.0 10191365
16:00+18с22322 0.0 10181569
19:00+16ссз11386 0.0 101711
22:00+15юв224099 0.0 101811
18 сентября, сб
сб1801:00+13ююз344215 0.0 101873
04:00+12ююз47475 0.0 1017102
07:00+12юз354810 0.0 101886
10:00+17зюз333212 0.0 1018550
13:00+20зсз122588 0.0 10181820
16:00+22с232417 0.0 10172214
19:00+18ссв573016 0.0 1018264
22:00+15всв684394 0.0 1019330
19 сентября, вс
вс1901:00+14всв684655 0.0 1019347
04:00+13в594835 0.0 1020306
07:00+12в595418 0.0 1020245
10:00+17вюв664164 0.0 1020633
13:00+21вюв5630100 0.0 10191546
16:00+23юв6626100 0.0 10182001
19:00+20вюв5831100 0.0 1017226
22:00+19вюв593585 0.0 1018275
20 сентября, пн
пн2001:00+17вюв4103987 0.0 1017401
04:00+17вюв5103997 0.0 1017391
07:00+16вюв4939100 0.0 1016305
10:00+18в3436100 0.0 1017304
13:00+21в7833100 0.0 1016685
16:00+20в4740100 0.0 1014412
19:00+19всв3351100 0.0 101429
22:00+18юв496699 0.3 1014234
21 сентября, вт
вт2101:00+17юв597093 0.7 1014237
04:00+18зюз3561100 0.7 1014132
07:00+17ююз366595 0.1 1015190
10:00+21ююз5664100 0.1 1015701
13:00+24юз6851100 0.1 10151516
16:00+23юз564496 0.4 10141198
19:00+22з4743100 0.0 1014241
22:00+19сз3350100 0.0 101550